Location: Bouchavesnes-Bergen
(49.9859°N, 2.9203°E)
Time: 09:56:24
(UTC+00:00)

CBERS 1 LM4 rocket - Pass Details

Date: 09 March 2021
Orbit: 700 x 843 km, 98.8° (Epoch: 13 April)

Event Time Altitude Azimuth Distance (km) Brightness Sun altitude
Rises 04:40:02 0° 14° (NNE) 3,145 8.0 -16.0°
Reaches altitude 10° 04:42:20 10° 13° (NNE) 2,205 7.2 -15.6°
Maximum altitude 04:47:09 80° 288° (WNW) 722 4.2 -14.9°
Drops below altitude 10° 04:51:51 10° 201° (SSW) 2,160 6.5 -14.1°
Sets 04:54:05 0° 201° (SSW) 3,075 7.3 -13.8°
